TimeEST,TemperatureF,Dew PointF,Humidity,Sea Level PressureIn,VisibilityMPH,Wind Direction,Wind SpeedMPH,Gust SpeedMPH,PrecipitationIn,Events,Conditions,WindDirDegrees,DateUTC
12:15 AM,32.0,28.4,87,29.87,7.0,Calm,Calm,-,N/A,,Scattered Clouds,0,2014-01-18 05:15:00
12:35 AM,32.0,28.4,87,29.86,7.0,Calm,Calm,-,N/A,,Mostly Cloudy,0,2014-01-18 05:35:00
12:55 AM,32.0,28.4,87,29.86,7.0,Calm,Calm,-,N/A,,Overcast,0,2014-01-18 05:55:00
1:15 AM,32.0,28.4,87,29.85,7.0,Calm,Calm,-,N/A,,Mostly Cloudy,0,2014-01-18 06:15:00
1:35 AM,32.0,28.4,87,29.85,7.0,Calm,Calm,-,N/A,,Scattered Clouds,0,2014-01-18 06:35:00
1:55 AM,32.0,28.4,87,29.84,10.0,Calm,Calm,-,N/A,,Mostly Cloudy,0,2014-01-18 06:55:00
2:15 AM,32.0,28.4,87,29.84,10.0,Calm,Calm,-,N/A,,Overcast,0,2014-01-18 07:15:00
2:35 AM,32.0,28.4,87,29.83,7.0,Calm,Calm,-,N/A,,Overcast,0,2014-01-18 07:35:00
2:55 AM,32.0,30.2,93,29.84,10.0,Calm,Calm,-,N/A,,Overcast,0,2014-01-18 07:55:00
3:15 AM,32.0,30.2,93,29.82,10.0,Calm,Calm,-,N/A,,Overcast,0,2014-01-18 08:15:00
3:35 AM,33.8,30.2,87,29.82,7.0,SW,3.5,-,N/A,Snow,Light Snow,220,2014-01-18 08:35:00
3:55 AM,33.8,30.2,87,29.79,5.0,Calm,Calm,-,N/A,Snow,Light Snow,0,2014-01-18 08:55:00
4:15 AM,33.8,30.2,87,29.78,10.0,Calm,Calm,-,N/A,,Overcast,0,2014-01-18 09:15:00
4:35 AM,33.8,30.2,87,29.78,10.0,ENE,3.5,-,N/A,,Overcast,60,2014-01-18 09:35:00
4:55 AM,33.8,30.2,87,29.79,10.0,Calm,Calm,-,N/A,,Overcast,0,2014-01-18 09:55:00
5:15 AM,33.8,30.2,87,29.77,10.0,Calm,Calm,-,N/A,,Mostly Cloudy,0,2014-01-18 10:15:00
5:35 AM,33.8,30.2,87,29.76,10.0,Calm,Calm,-,N/A,,Clear,0,2014-01-18 10:35:00
6:45 AM,32.0,28.4,87,29.74,10.0,Calm,Calm,-,N/A,,Overcast,0,2014-01-18 11:45:00
7:45 AM,32.0,30.2,93,29.73,10.0,NW,4.6,-,N/A,,Overcast,310,2014-01-18 12:45:00
8:45 AM,33.8,30.2,87,29.75,5.0,NNW,5.8,-,N/A,Snow,Light Snow,340,2014-01-18 13:45:00
9:20 AM,33.8,32.0,93,29.76,1.0,West,4.6,-,N/A,Snow,Snow,280,2014-01-18 14:20:00
9:45 AM,33.8,32.0,93,29.75,1.0,NNW,9.2,-,N/A,Snow,Snow,340,2014-01-18 14:45:00
10:45 AM,33.8,32.0,93,29.73,7.0,NW,4.6,-,N/A,,Overcast,320,2014-01-18 15:45:00
11:45 AM,35.6,30.2,81,29.71,10.0,NW,5.8,16.1,N/A,,Mostly Cloudy,320,2014-01-18 16:45:00
12:45 PM,37.4,28.4,70,29.70,10.0,NNW,12.7,20.7,N/A,,Mostly Cloudy,330,2014-01-18 17:45:00
1:45 PM,37.4,26.6,65,29.70,10.0,North,13.8,19.6,N/A,,Overcast,10,2014-01-18 18:45:00
2:45 PM,35.6,24.8,65,29.72,10.0,NW,9.2,24.2,N/A,,Mostly Cloudy,310,2014-01-18 19:45:00
3:45 PM,35.6,24.8,65,29.75,10.0,NW,11.5,18.4,N/A,,Overcast,310,2014-01-18 20:45:00
4:45 PM,33.8,-9999,N/A,29.79,10.0,NW,8.1,25.3,N/A,,Overcast,320,2014-01-18 21:45:00
5:45 PM,32.0,21.2,64,29.80,10.0,NW,9.2,19.6,N/A,,Overcast,320,2014-01-18 22:45:00
6:45 PM,30.2,24.8,80,29.81,10.0,NNW,8.1,18.4,N/A,,Overcast,340,2014-01-18 23:45:00
7:45 PM,30.2,28.4,93,29.83,10.0,NNW,9.2,16.1,N/A,,Overcast,330,2014-01-19 00:45:00
8:45 PM,28.4,26.6,93,29.85,10.0,WNW,17.3,23.0,N/A,,Overcast,300,2014-01-19 01:45:00
9:45 PM,28.4,19.4,69,29.84,10.0,WNW,6.9,-,N/A,,Mostly Cloudy,290,2014-01-19 02:45:00
9:55 PM,30.2,19.4,64,29.84,10.0,West,8.1,-,N/A,,Overcast,280,2014-01-19 02:55:00
10:15 PM,30.2,19.4,64,29.84,10.0,West,10.4,-,N/A,,Scattered Clouds,280,2014-01-19 03:15:00
10:35 PM,30.2,17.6,60,29.84,10.0,West,5.8,-,N/A,,Clear,280,2014-01-19 03:35:00
10:55 PM,30.2,17.6,60,29.85,10.0,West,5.8,-,N/A,,Clear,280,2014-01-19 03:55:00
11:15 PM,28.4,17.6,64,29.87,10.0,West,6.9,-,N/A,,Scattered Clouds,270,2014-01-19 04:15:00
11:35 PM,28.4,17.6,64,29.88,10.0,West,6.9,-,N/A,,Mostly Cloudy,260,2014-01-19 04:35:00
11:55 PM,28.4,17.6,64,29.86,10.0,WNW,8.1,-,N/A,,Mostly Cloudy,290,2014-01-19 04:55:00